www.pogodaiklimat.ru

Погода и климат >> Архив погоды >> Йемен >> Aden


ПОГОДА в Aden

  • Прогноз погоды в Aden
  • Монитор погоды в Aden
  • Климат города

АРХИВ ПОГОДЫ в Aden

Время (UTC), дата Ветер
(напр.,м/с)
 
Видим.   Явления Облачность Т
(С)
Тd
(С)
f
(%)
Тe
(С)
Тes
(С)
Комфортность P
(гПа)
Po
(гПа)
Тmin
(С)
Tmax
(С)
R
(мм)
R24
(мм)
S
(см)
09 11.08 В 1 10 км 10/6 600 м
[Cb cap Ac lent]
+18.7 +17.4 92 +21 +24 комфорт 850.5 814.3
12 11.08 штиль 0 3000 м 9/6 300 м
[Frnb Ac As]
+28.5 +26.8 91 +45 +48 опасность
перегрева
998.8 999.0 +28.6 3
15 11.08 С 7 10 км ясно +44.2 +19.7 25 +43 +43 опасность
перегрева
1024.1 1030.2
18 11.08 С 6 10 км ясно +41.3 +9.3 15 +40 +40 очень
жарко
1000.1 1000.0
21 11.08 С 6 10 км ясно +38.2 +8.7 17 +36 +36 очень
жарко
1001.0 1001.0 +30.8 +46.6
00 12.08 С 4 10 км ясно +35.7 +9.8 21 +35 +35 очень
жарко
1000.3 1000.0
03 12.08 З 2 10 км ясно +31.2 +7.3 22 +30 +30 жарко 1000.5 1001.0
09 12.08 В 2 10 км 8/3 600 м
[Cu hum Ac lent]
+18.4 +17.7 96 +20 +27 849.4 813.3 90
12 12.08 С 10 10 км ясно +46.3 +7.9 10 +44 +44 опасность
перегрева
997.4 997.0
15 12.08 С 2 10 км 8/8 600 м
[Cb cap]
+21.7 +15.0 66 +25 +25 комфорт 849.4 813.0 360
18 12.08 С 7 10 км ясно +41.5 +8.6 14 +39 +39 очень
жарко
997.6 998.0
00 13.08 С 1 10 км 3/3 600 м
[Cb cap]
+12.0 +11.7 98 +12 +12 851.8 814.3
03 13.08 С 11 8000 м пыльный позёмок ясно +35.2 +10.6 22 +34 +34 очень
жарко
996.9 997.0
06 13.08 С 9 8000 м пыльный позёмок ясно +38.3 +10.4 19 +37 +38 очень
жарко
997.6 998.0
12 13.08 С 1 10 км 3/1 600 м
[Cu hum Ac lent]
+19.3 +16.4 83 +22 +32 комфорт 849.4 813.4
00 14.08 СЗ 5 10 км ясно +33.9 +7.7 20 +32 +32 жарко 996.2 996.0
03 14.08 СЗ 3 10 км ясно +31.8 +6.0 20 +30 +30 жарко 997.4 997.0
06 14.08 С 2 10 км 6/1 600 м
[Cu hum Ac lent]
+15.2 +14.9 98 +15 +21 850.5 813.7 +10.6
09 14.08 С 9 8000 м пыльный позёмок ясно +42.6 +7.9 13 +41 +43 опасность
перегрева
997.4 997.0
21 14.08 С 1 10 км 3/0
[Ac trans]
+13.2 +12.8 97 +14 +14 850.5 814.0
03 15.08 З 2 10 км ясно +28.5 +2.8 19 +27 +27 жарко 999.6 1000.0
06 15.08 З 3 10 км ясно +38.5 +6.7 14 +36 +46 очень
жарко
1000.1 1000.0
09 15.08 В 1 10 км 3/1 600 м
[Cu hum Ac lent]
+18.9 +15.9 83 +21 +40 комфорт 850.5 813.9
12 15.08 З 5 10 км ясно +44.8 +5.8 10 +42 +48 опасность
перегрева
998.2 998.0
03 16.08 ЮЗ 2 5000 м мгла ясно +28.0 +1.8 18 +26 +26 жарко 1000.5 1001.0
06 16.08 С 4 10 км ясно +39.2 +8.6 16 +37 +45 очень
жарко
1000.9 1001.0
09 16.08 С 6 10 км ясно +43.7 +8.3 12 +42 +51 опасность
перегрева
1000.4 1000.0
12 16.08 С 5 10 км ясно +45.0 +7.0 10 +42 +48 опасность
перегрева
998.7 999.0
15 16.08 СЗ 6 10 км ясно +44.0 +5.0 10 +41 +41 опасность
перегрева
998.4 998.0
18 16.08 З 4 10 км ясно +37.3 +2.9 12 +34 +34 очень
жарко
999.5 1000.0
21 16.08 штиль 0 40 км 4/4 600 м
[]
+34.5 +2.2 13 +31 +31 жарко 999.2 999.0 +26.6 +45.8
00 17.08 штиль 0 50 км ?/? +31.4 +3.4 17 999.4
03 17.08 штиль 0 50 км ?/? +18.4 +9.3 55 900.1
06 17.08 10 км 4/4 <50 м
[]
+16.0 +15.0 94 850.5 814.2 +11.2 3
09 17.08 0 н/о +44.7 +6.1 10 999.7
15 17.08 5000 м 1/1 50 м
[]
+44.2 +3.7 9 997.5
18 17.08 штиль 0 50 км ?/? +40.6 +2.8 10 998.2
21 17.08 0 н/о +37.5 +3.7 12 997.1 +28.7 +47.8

 

Местоположение метеостанции Aden (Йемен): широта 12.83 долгота 45.03 высота над уровнем моря 3 м.

В архиве по умолчанию представлена погода в Aden за последнюю неделю. Архивные данные за месяц целиком и за предыдущие месяцы, начиная с января 2011 года, Вы можете получить, выбрав интересующий диапазон дат из раскрывающегося списка и нажав кнопку "Ввод!".


*Определитесь, кто Вы:
робот инопланетянин человек

Внимание! Время в таблицах - всемирное. Для получения местного времени необходимо прибавить поправку, которая в Aden равна 3 ч.

Смотрите также архив погоды в соседних городах и на ближайших метеорологических станциях:

Погода в Taiz (Йемен) (136 км)
Погода в Dhamar (Йемен) (206 км)
Погода в Djibouti () (249 км)
Погода в Marib (Йемен) (291 км)
Погода в Hodeidah (Йемен) (308 км)
Погода в Sana (Йемен) (313 км)
Погода в Hajjah (Йемен) (368 км)
Погода в Hargeisa (Сомали) (385 км)
Погода в Bosaso (Сомали) (483 км)
Погода в Riyan (Йемен) (496 км)

Пояснения к столбцам:

Ветер - указаны скорость ветра в м/с - средняя за 10 мин, порывы в срок и между сроками (в фигурных скобках) и направление, откуда дует ветер: С - северный, СВ - северо-восточный, В - восточный, ЮВ - юго-восточный, Ю - южный, ЮЗ - юго-западный, З - западный, СЗ - северо-западный.
Видимость - горизонтальная дальность видимости в метрах или километрах. При видимости от 1 до 10 км при отсутствии осадков обычно наблюдается дымка, при ухудшении видимости до 1 км и менее - туман. В сухую погоду видимость может ухудшаться дымом, пылью или мглою.
Явления - указаны атмосферные явления, наблюдавшиеся в срок или в последний час перед сроком; фигурными скобками обозначены явления, наблюдавшиеся между сроками (за 1-3 часа до срока); квадратными скобками обозначены град или гололедные отложения с указанием их диаметра в мм.
Облачность - указаны через наклонную черту общая и нижняя облачность в баллах и высота нижней границы облаков в метрах; квадратными скобками обозначены формы облаков: Ci - перистые, Cs - перисто-слоистые, Cc - перисто-кучевые, Ac - высококучевые, As - высокослоистые, Sc - слоисто-кучевые, Ns - слоисто-дождевые, Cu - кучевые, Cb - кучево-дождевые. Подробнее классификацию облаков см. в Атласе облаков (PDF).
T - Температура воздуха - температура, измеренная на высоте 2 м над землей.
Td - Температура точки росы - температура, при понижении до которой содержащийся в воздухе водяной пар достигнет насыщения.
f - Относительная влажность воздуха - влажноcть воздуха, измеренная на высоте 2 м над землей.
Te - Эффективная температура - температура, которую ощущает одетый по сезону человек в тени. Характеристика душности погоды. При расчете учитывается влияние влажности воздуха и скорости ветра на теплоощущения человека.
Tes - Эффективная температура на солнце - температура, которую ощущает человек, с поправкой на солнечный нагрев. Характеристика знойности погоды. Зависит от высоты солнца над горизонтом, облачности и скорости ветра. Ночью, в пасмурную погоду, а также при ветре 12 м/с и более поправка равна нулю.
P - Атмосферное давление - приведенное к уровню моря атмосферное давление.
Po - Атмосферное давление - измеренное на уровне метеостанции атмосферное давление.
Tmin - Минимальная температура - минимум температуры воздуха на высоте 2 м над землей.
Tmax - Максимальная температура - максимум температуры воздуха на высоте 2 м над землей.
R - Количество осадков - Количество выпавших осадков за период времени, мм. При наведении курсора мыши на число - период времени, за который выпало указанное количество осадков.
R24 - Количество осадков - Количество выпавших осадков за 24 часа, мм.
S - Снежный покров - Высота снежного покрова, см. При наведении курсора мыши на число - состояние снежного покрова и степень покрытия местности в баллах.